Location: Bremen
(53.0793°N, 8.8017°E)
Time: 21:39:43
(UTC+02:00)

Vanguard 2 Rocket - Pass Details

Date: 17 April 2024
Orbit: 556 x 3304 km, 32.9° (Epoch: 20 May)

Event Time Altitude Azimuth Distance (km) Brightness Sun altitude
Rises 06:14:19 0° 271° (W) 7,048 10.8 -1.7°
Reaches altitude 10° 06:23:07 10° 250° (WSW) 5,541 10.2 -0.5°
Maximum altitude 06:29:04 13° 228° (SW) 4,818 10.0 0.4°
Drops below altitude 10° 06:34:11 10° 205° (SSW) 4,604 10.1 1.1°
Sets 06:40:00 0° 180° (S) 4,978 10.5 2.0°
